| time (UTC) | temp C | wind direction | speed KPH | gust KPH | rain 1hr cm | rain 24hr cm | rain mn cm | humidity % | barometer mb |
| 20260506191003 | 13 | 83 | 0.0 | 3.2 | 0.00 | 0.15 | 0.15 | 83 | 1009.8 |
| 20260506190003 | 13 | 81 | 1.6 | 4.8 | 0.00 | 0.15 | 0.15 | 83 | 1010.0 |
| 20260506185003 | 13 | 0 | 0.0 | 0.0 | 0.00 | 0.15 | 0.15 | 86 | 1009.8 |
| 20260506184003 | 14 | 0 | 0.0 | 0.0 | 0.00 | 0.15 | 0.15 | 85 | 1010.0 |
| 20260506183003 | 14 | 56 | 1.6 | 3.2 | 0.00 | 0.15 | 0.15 | 85 | 1009.8 |
| 20260506182003 | 14 | 25 | 3.2 | 6.4 | 0.00 | 0.15 | 0.15 | 84 | 1009.6 |
| 20260506181003 | 14 | 64 | 1.6 | 3.2 | 0.00 | 0.15 | 0.15 | 85 | 1009.9 |
| 20260506180004 | 15 | 61 | 4.8 | 6.4 | 0.03 | 0.15 | 0.15 | 83 | 1010.2 |
| 20260506175003 | 15 | 34 | 4.8 | 6.4 | 0.03 | 0.15 | 0.15 | 83 | 1009.7 |
| 20260506174003 | 15 | 346 | 6.4 | 11.3 | 0.03 | 0.15 | 0.15 | 82 | 1009.6 |
| 20260506173003 | 15 | 308 | 6.4 | 11.3 | 0.03 | 0.15 | 0.15 | 82 | 1009.5 |
| 20260506172003 | 16 | 291 | 6.4 | 11.3 | 0.03 | 0.15 | 0.15 | 81 | 1009.4 |
| 20260506171003 | 16 | 337 | 4.8 | 12.9 | 0.03 | 0.15 | 0.15 | 82 | 1009.3 |
| 20260506170003 | 16 | 317 | 8.0 | 17.7 | 0.00 | 0.13 | 0.13 | 80 | 1009.2 |
| 20260506165003 | 17 | 329 | 4.8 | 9.7 | 0.00 | 0.13 | 0.13 | 78 | 1008.9 |
| 20260506164004 | 17 | 347 | 3.2 | 4.8 | 0.00 | 0.13 | 0.13 | 76 | 1008.7 |
| 20260506163003 | 17 | 360 | 3.2 | 6.4 | 0.00 | 0.13 | 0.13 | 72 | 1008.7 |
| 20260506162003 | 18 | 18 | 4.8 | 6.4 | 0.00 | 0.13 | 0.13 | 71 | 1008.1 |
| 20260506161003 | 18 | 37 | 3.2 | 9.7 | 0.00 | 0.13 | 0.13 | 69 | 1008.3 |
| 20260506160003 | 17 | 52 | 4.8 | 11.3 | 0.00 | 0.13 | 0.13 | 72 | 1008.5 |
| 20260506155003 | 17 | 45 | 3.2 | 9.7 | 0.00 | 0.13 | 0.13 | 78 | 1008.9 |
| 20260506154003 | 17 | 95 | 4.8 | 9.7 | 0.00 | 0.13 | 0.13 | 73 | 1008.8 |
| 20260506153003 | 17 | 141 | 3.2 | 9.7 | 0.00 | 0.13 | 0.13 | 74 | 1009.6 |
| 20260506152003 | 18 | 72 | 3.2 | 6.4 | 0.00 | 0.13 | 0.13 | 73 | 1009.1 |
| 20260506151003 | 18 | 54 | 3.2 | 6.4 | 0.05 | 0.13 | 0.13 | 71 | 1009.0 |
| 20260506150003 | 19 | 341 | 1.6 | 3.2 | 0.13 | 0.13 | 0.13 | 68 | 1009.3 |
| 20260506145003 | 18 | 335 | 3.2 | 6.4 | 0.13 | 0.13 | 0.13 | 71 | 1009.3 |
| 20260506144003 | 17 | 304 | 4.8 | 4.8 | 0.13 | 0.13 | 0.13 | 74 | 1009.4 |
| 20260506143003 | 16 | 296 | 4.8 | 6.4 | 0.13 | 0.13 | 0.13 | 79 | 1009.9 |
| 20260506142003 | 17 | 331 | 1.6 | 6.4 | 0.13 | 0.13 | 0.13 | 76 | 1010.0 |
| 20260506141003 | 17 | 62 | 1.6 | 6.4 | 0.08 | 0.08 | 0.08 | 75 | 1010.0 |
| 20260506140003 | 20 | 52 | 3.2 | 6.4 | 0.00 | 0.00 | 0.00 | 55 | 1009.6 |
| 20260506135003 | 21 | 29 | 3.2 | 9.7 | 0.00 | 0.00 | 0.00 | 54 | 1009.4 |
| 20260506134003 | 21 | 6 | 3.2 | 6.4 | 0.00 | 0.00 | 0.00 | 52 | 1009.3 |
| 20260506133003 | 21 | 43 | 3.2 | 9.7 | 0.00 | 0.00 | 0.00 | 52 | 1009.3 |
| 20260506132003 | 21 | 356 | 1.6 | 6.4 | 0.00 | 0.00 | 0.00 | 52 | 1009.5 |
| 20260506131003 | 21 | 347 | 3.2 | 6.4 | 0.00 | 0.00 | 0.00 | 49 | 1009.7 |
| 20260506130003 | 20 | 331 | 1.6 | 6.4 | 0.00 | 0.00 | 0.00 | 54 | 1010.1 |
| 20260506125003 | 20 | 324 | 3.2 | 6.4 | 0.00 | 0.00 | 0.00 | 57 | 1010.1 |
| 20260506124003 | 21 | 352 | 3.2 | 6.4 | 0.00 | 0.00 | 0.00 | 53 | 1009.9 |
| 20260506123003 | 21 | 5 | 3.2 | 6.4 | 0.00 | 0.00 | 0.00 | 49 | 1010.0 |
| 20260506122003 | 21 | 330 | 1.6 | 6.4 | 0.00 | 0.00 | 0.00 | 47 | 1010.2 |
| 20260506121003 | 21 | 300 | 3.2 | 6.4 | 0.00 | 0.00 | 0.00 | 49 | 1010.4 |
| 20260506120003 | 21 | 271 | 3.2 | 4.8 | 0.00 | 0.00 | 0.00 | 47 | 1010.3 |
| 20260506115003 | 22 | 347 | 1.6 | 6.4 | 0.00 | 0.00 | 0.00 | 50 | 1010.0 |
| 20260506114003 | 20 | 314 | 3.2 | 9.7 | 0.00 | 0.00 | 0.00 | 51 | 1010.4 |
| 20260506113003 | 21 | 327 | 3.2 | 9.7 | 0.00 | 0.00 | 0.00 | 50 | 1010.4 |
| 20260506112003 | 20 | 350 | 3.2 | 9.7 | 0.00 | 0.00 | 0.00 | 52 | 1010.5 |
| 20260506111003 | 20 | 15 | 3.2 | 6.4 | 0.00 | 0.00 | 0.00 | 53 | 1010.9 |
| 20260506110003 | 19 | 241 | 4.8 | 6.4 | 0.00 | 0.00 | 0.00 | 54 | 1011.0 |
| 20260506105003 | 21 | 277 | 3.2 | 11.3 | 0.00 | 0.00 | 0.00 | 51 | 1011.1 |
| 20260506104003 | 21 | 248 | 3.2 | 11.3 | 0.00 | 0.00 | 0.00 | 51 | 1011.1 |
| 20260506103003 | 19 | 270 | 6.4 | 12.9 | 0.00 | 0.00 | 0.00 | 55 | 1011.6 |
| 20260506102003 | 19 | 264 | 3.2 | 11.3 | 0.00 | 0.00 | 0.00 | 52 | 1011.5 |
| 20260506101003 | 20 | 245 | 3.2 | 12.9 | 0.00 | 0.00 | 0.00 | 53 | 1011.7 |
| 20260506100003 | 19 | 211 | 4.8 | 11.3 | 0.00 | 0.00 | 0.00 | 53 | 1011.7 |
| 20260506095003 | 19 | 228 | 4.8 | 11.3 | 0.00 | 0.00 | 0.00 | 56 | 1011.7 |
| 20260506094003 | 18 | 263 | 3.2 | 11.3 | 0.00 | 0.00 | 0.00 | 59 | 1011.9 |
| 20260506093003 | 18 | 276 | 6.4 | 12.9 | 0.00 | 0.00 | 0.00 | 59 | 1012.0 |
| 20260506092003 | 18 | 276 | 6.4 | 14.5 | 0.00 | 0.00 | 0.00 | 61 | 1011.9 |
| 20260506091003 | 18 | 247 | 4.8 | 9.7 | 0.00 | 0.00 | 0.00 | 62 | 1012.1 |
| 20260506090003 | 17 | 292 | 8.0 | 12.9 | 0.00 | 0.00 | 0.00 | 63 | 1012.2 |
| 20260506085003 | 17 | 273 | 6.4 | 14.5 | 0.00 | 0.00 | 0.00 | 63 | 1012.0 |
| 20260506084006 | 17 | 248 | 6.4 | 12.9 | 0.00 | 0.00 | 0.00 | 62 | 1012.1 |
| 20260506083003 | 17 | 244 | 8.0 | 14.5 | 0.00 | 0.00 | 0.00 | 61 | 1012.4 |
| 20260506082003 | 17 | 247 | 8.0 | 14.5 | 0.00 | 0.00 | 0.00 | 63 | 1011.9 |
| 20260506081003 | 16 | 251 | 9.7 | 16.1 | 0.00 | 0.00 | 0.00 | 63 | 1012.2 |
| 20260506073003 | 16 | 261 | 9.7 | 20.9 | 0.00 | 0.00 | 0.00 | 66 | 1012.5 |
| 20260506072003 | 16 | 274 | 8.0 | 17.7 | 0.00 | 0.00 | 0.00 | 67 | 1012.6 |
| 20260506071003 | 16 | 277 | 11.3 | 20.9 | 0.00 | 0.00 | 0.00 | 68 | 1012.4 |
| 20260506062003 | 16 | 277 | 6.4 | 14.5 | 0.00 | 0.00 | 0.00 | 69 | 1012.2 |
| 20260506061003 | 15 | 258 | 3.2 | 9.7 | 0.00 | 0.00 | 0.00 | 72 | 1012.2 |
| 20260506051003 | 14 | 206 | 3.2 | 6.4 | 0.00 | 0.00 | 0.00 | 80 | 1012.4 |
| 20260506045003 | 13 | 154 | 0.0 | 3.2 | 0.00 | 0.00 | 0.00 | 82 | 1012.4 |
| 20260506044003 | 13 | 133 | 0.0 | 1.6 | 0.00 | 0.00 | 0.00 | 83 | 1012.3 |
| 20260506043003 | 12 | 133 | 0.0 | 1.6 | 0.00 | 0.00 | 0.00 | 88 | 1012.2 |
| 20260506042003 | 12 | 133 | 0.0 | 1.6 | 0.00 | 0.00 | 0.00 | 91 | 1012.6 |
| 20260506040003 | 12 | 0 | 0.0 | 0.0 | 0.00 | 0.00 | 0.00 | 93 | 1012.2 |
| 20260506035003 | 11 | 132 | 0.0 | 3.2 | 0.00 | 0.00 | 0.00 | 94 | 1012.0 |
| 20260506034003 | 12 | 130 | 1.6 | 3.2 | 0.00 | 0.00 | 0.00 | 94 | 1011.6 |
| 20260506033004 | 12 | 0 | 0.0 | 0.0 | 0.00 | 0.00 | 0.00 | 93 | 1011.9 |
| 20260506032003 | 12 | 0 | 0.0 | 0.0 | 0.00 | 0.00 | 0.00 | 93 | 1011.9 |
| 20260506031003 | 12 | 121 | 0.0 | 1.6 | 0.00 | 0.00 | 0.00 | 93 | 1011.8 |
| 20260506030003 | 12 | 125 | 1.6 | 1.6 | 0.00 | 0.00 | 0.00 | 93 | 1011.8 |
| 20260506025006 | 12 | 126 | 0.0 | 1.6 | 0.00 | 0.00 | 0.00 | 92 | 1012.2 |
| 20260506024003 | 13 | 127 | 0.0 | 3.2 | 0.00 | 0.00 | 0.00 | 92 | 1011.8 |
| 20260506023003 | 13 | 133 | 0.0 | 3.2 | 0.00 | 0.00 | 0.00 | 91 | 1012.0 |
| 20260506022003 | 13 | 129 | 0.0 | 3.2 | 0.00 | 0.00 | 0.00 | 91 | 1011.8 |
| 20260506021003 | 13 | 0 | 0.0 | 0.0 | 0.00 | 0.00 | 0.00 | 91 | 1011.9 |
| 20260506020003 | 13 | 137 | 0.0 | 1.6 | 0.00 | 0.00 | 0.00 | 91 | 1011.7 |
| 20260506015003 | 13 | 106 | 0.0 | 1.6 | 0.00 | 0.00 | 0.00 | 91 | 1012.0 |
| 20260506014003 | 13 | 0 | 0.0 | 0.0 | 0.00 | 0.00 | 0.00 | 91 | 1011.7 |
| 20260506013003 | 13 | 77 | 1.6 | 4.8 | 0.00 | 0.00 | 0.00 | 91 | 1011.5 |
| 20260506012003 | 13 | 51 | 0.0 | 4.8 | 0.00 | 0.00 | 0.00 | 91 | 1011.7 |
| 20260506011003 | 13 | 27 | 1.6 | 3.2 | 0.00 | 0.00 | 0.00 | 90 | 1011.6 |
| 20260506010003 | 13 | 21 | 0.0 | 3.2 | 0.00 | 0.00 | 0.00 | 90 | 1011.8 |
| 20260506005003 | 13 | 358 | 0.0 | 3.2 | 0.00 | 0.00 | 0.00 | 90 | 1011.4 |
| 20260506004003 | 13 | 340 | 1.6 | 4.8 | 0.00 | 0.00 | 0.00 | 90 | 1011.8 |
| 20260506003003 | 13 | 333 | 3.2 | 6.4 | 0.00 | 0.00 | 0.00 | 89 | 1011.7 |
| 20260506002003 | 13 | 338 | 1.6 | 4.8 | 0.00 | 0.00 | 0.00 | 89 | 1011.4 |
| 20260506001003 | 14 | 316 | 4.8 | 11.3 | 0.00 | 0.00 | 0.00 | 89 | 1011.6 |
| 20260506000003 | 14 | 311 | 8.0 | 14.5 | 0.00 | 0.00 | 0.00 | 88 | 1011.6 |
| 20260505235003 | 14 | 331 | 6.4 | 12.9 | 0.00 | 0.00 | 0.00 | 87 | 1011.4 |
| 20260505234003 | 14 | 326 | 4.8 | 11.3 | 0.00 | 0.00 | 0.00 | 86 | 1011.4 |
| 20260505233003 | 15 | 315 | 6.4 | 14.5 | 0.00 | 0.00 | 0.00 | 85 | 1011.2 |
| 20260505232003 | 15 | 310 | 11.3 | 22.5 | 0.00 | 0.00 | 0.00 | 84 | 1011.0 |
| 20260505231003 | 15 | 313 | 14.5 | 25.7 | 0.00 | 0.00 | 0.00 | 83 | 1011.7 |
| 20260505230003 | 15 | 299 | 12.9 | 24.1 | 0.00 | 0.00 | 0.00 | 81 | 1011.6 |
| 20260505225003 | 16 | 289 | 9.7 | 24.1 | 0.00 | 0.00 | 0.00 | 79 | 1011.1 |
| 20260505224003 | 16 | 289 | 11.3 | 29.0 | 0.00 | 0.00 | 0.00 | 76 | 1011.0 |
| 20260505223003 | 17 | 184 | 1.6 | 4.8 | 0.00 | 0.00 | 0.00 | 62 | 1010.3 |
| 20260505222003 | 17 | 187 | 3.2 | 9.7 | 0.00 | 0.00 | 0.00 | 61 | 1010.1 |
| 20260505221004 | 17 | 233 | 3.2 | 11.3 | 0.00 | 0.00 | 0.00 | 61 | 1010.1 |
| 20260505220011 | 17 | 234 | 4.8 | 9.7 | 0.00 | 0.00 | 0.00 | 62 | 1009.7 |
| 20260505215003 | 17 | 241 | 8.0 | 17.7 | 0.00 | 0.00 | 0.00 | 63 | 1010.3 |
| 20260505214011 | 17 | 110 | 3.2 | 11.3 | 0.00 | 0.00 | 0.00 | 60 | 1009.0 |
| 20260505213003 | 17 | 99 | 3.2 | 9.7 | 0.00 | 0.00 | 0.00 | 61 | 1009.0 |
| 20260505212003 | 17 | 108 | 1.6 | 9.7 | 0.00 | 0.00 | 0.00 | 63 | 1008.9 |
| 20260505211003 | 17 | 107 | 3.2 | 11.3 | 0.00 | 0.00 | 0.00 | 63 | 1008.9 |
| 20260505210003 | 16 | 130 | 1.6 | 3.2 | 0.00 | 0.00 | 0.00 | 69 | 1008.9 |
| 20260505205003 | 16 | 0 | 0.0 | 0.0 | 0.00 | 0.00 | 0.00 | 76 | 1009.3 |
| 20260505204003 | 16 | 77 | 1.6 | 4.8 | 0.00 | 0.00 | 0.00 | 76 | 1009.4 |
| 20260505203003 | 16 | 77 | 1.6 | 4.8 | 0.00 | 0.00 | 0.00 | 77 | 1009.3 |
| 20260505202003 | 16 | 0 | 0.0 | 0.0 | 0.00 | 0.00 | 0.00 | 78 | 1009.3 |
| 20260505201003 | 16 | 83 | 0.0 | 1.6 | 0.00 | 0.00 | 0.00 | 78 | 1009.0 |
| 20260505200003 | 16 | 95 | 1.6 | 3.2 | 0.00 | 0.00 | 0.00 | 77 | 1009.0 |
| 20260505195003 | 16 | 120 | 1.6 | 3.2 | 0.00 | 0.00 | 0.00 | 77 | 1009.0 |
| 20260505194003 | 16 | 125 | 3.2 | 6.4 | 0.00 | 0.00 | 0.00 | 77 | 1009.1 |
| 20260505193003 | 16 | 133 | 4.8 | 11.3 | 0.00 | 0.00 | 0.00 | 78 | 1009.2 |
| 20260505192003 | 16 | 137 | 4.8 | 6.4 | 0.00 | 0.00 | 0.00 | 78 | 1009.0 |